Weather History for Stanton, MN

Change the Weather History Date:

Saturday, October 19, 2013

  Actual Average (KLVN) Record (KLVN)
Temperature  
Mean Temperature 40 °F -  
Max Temperature 47 °F 56 °F 84 °F (2000)
Min Temperature 32 °F 33 °F 12 °F (1972)
Degree Days  
Heating Degree Days 26    
Moisture  
Dew Point 33 °F    
Average Humidity 81    
Maximum Humidity 93    
Minimum Humidity 56    
Precipitation  
Precipitation 0.00 in - - ()
Sea Level Pressure  
Sea Level Pressure 29.76 in    
Wind  
Wind Speed 5 mph (WSW)    
Max Wind Speed 20 mph    
Max Gust Speed 25 mph    
Visibility 10 miles    
Events Rain    
Averages and records for this station are not official NWS values.
T = Trace of Precipitation, MM = Missing Value Source: NWS Daily Summary

Daily Weather History Graph

Daily Weather History Graph

Search for Another Location

Airport:

Trip Planner

Search our weather history database for the weather conditions in past years. The results will help you decide how hot, cold, wet, or windy it might be!

Date:

Astronomy

Oct. 19, 2013 Rise Set
Actual Time 7:32 AM CDT 6:20 PM CDT
Civil Twilight 7:03 AM CDT 6:50 PM CDT
Nautical Twilight 6:29 AM CDT 7:23 PM CDT
Astronomical Twilight 5:55 AM CDT 7:57 PM CDT
Moon 6:45 PM CDT (10/19) 8:13 AM CDT (10/19)
Length of Visible Light 11h 46m
Length of Day
10h 47m
Waxing Gibbous, 99% of the Moon is Illuminated
Oct 19
Waxing Gibbous
Oct 26
Last Quarter
Nov 3
New
Nov 9
First Quarter
Nov 17
Full

Hourly Weather History & Observations

Time (CDT) Temp. Windchill Dew Point Humidity Pressure Visibility Wind Dir Wind Speed Gust Speed Precip Events Conditions
12:12 AM 41.4 °F 39.4 °F 32.5 °F 71% 29.84 in 10.0 mi SW 3.5 mph - N/A   Scattered Clouds
12:32 AM 39.9 °F - 32.9 °F 76% 29.83 in 10.0 mi Calm Calm - N/A   Scattered Clouds
12:51 AM 38.8 °F 36.5 °F 32.9 °F 79% 29.83 in 10.0 mi South 3.5 mph - N/A   Clear
1:12 AM 38.1 °F 35.7 °F 32.9 °F 81% 29.83 in 10.0 mi SSW 3.5 mph - N/A   Scattered Clouds
1:32 AM 38.1 °F 35.7 °F 33.1 °F 82% 29.82 in 10.0 mi South 3.5 mph - N/A   Mostly Cloudy
1:51 AM 39.0 °F - 33.8 °F 82% 29.82 in 10.0 mi Calm Calm - N/A   Overcast
2:12 AM 37.2 °F 34.7 °F 33.1 °F 85% 29.81 in 10.0 mi SSW 3.5 mph - N/A   Mostly Cloudy
2:32 AM 35.8 °F 33.0 °F 32.0 °F 86% 29.81 in 10.0 mi SSW 3.5 mph - N/A   Clear
2:51 AM 34.9 °F 32.0 °F 32.0 °F 89% 29.81 in 10.0 mi SSW 3.5 mph - N/A   Clear
3:12 AM 34.9 °F 32.0 °F 32.0 °F 89% 29.79 in 10.0 mi South 3.5 mph - N/A   Clear
3:32 AM 33.8 °F 30.8 °F 31.6 °F 92% 29.79 in 10.0 mi SSW 3.5 mph - N/A   Clear
3:52 AM 33.3 °F 27.9 °F 31.3 °F 92% 29.78 in 10.0 mi SW 5.8 mph - N/A   Clear
4:12 AM 34.0 °F 31.0 °F 31.8 °F 92% 29.78 in 10.0 mi South 3.5 mph - N/A   Clear
4:31 AM 33.8 °F 30.8 °F 31.8 °F 92% 29.77 in 10.0 mi South 3.5 mph - N/A   Clear
4:52 AM 34.3 °F 31.4 °F 32.0 °F 91% 29.76 in 10.0 mi South 3.5 mph - N/A   Clear
5:12 AM 34.2 °F 31.2 °F 32.0 °F 92% 29.76 in 10.0 mi South 3.5 mph - N/A   Scattered Clouds
5:31 AM 34.0 °F 31.0 °F 32.0 °F 92% 29.75 in 10.0 mi South 3.5 mph - N/A   Scattered Clouds
5:52 AM 33.8 °F 30.8 °F 31.8 °F 92% 29.75 in 10.0 mi South 3.5 mph - N/A   Clear
6:11 AM 33.6 °F 30.6 °F 31.8 °F 93% 29.75 in 10.0 mi SSW 3.5 mph - N/A   Clear
6:32 AM 33.8 °F 29.6 °F 31.8 °F 92% 29.74 in 10.0 mi SSW 4.6 mph - N/A   Clear
6:52 AM 34.2 °F 30.0 °F 32.0 °F 92% 29.74 in 10.0 mi SSW 4.6 mph - N/A   Clear
7:11 AM 34.2 °F 29.0 °F 32.0 °F 92% 29.74 in 10.0 mi SSW 5.8 mph - N/A   Clear
7:32 AM 34.2 °F 29.0 °F 32.0 °F 92% 29.74 in 10.0 mi SSW 5.8 mph - N/A   Scattered Clouds
7:52 AM 34.7 °F 30.6 °F 32.0 °F 90% 29.73 in 10.0 mi South 4.6 mph - N/A   Scattered Clouds
8:11 AM 34.7 °F 30.6 °F 32.0 °F 90% 29.73 in 10.0 mi SSW 4.6 mph - N/A   Scattered Clouds
9:11 AM 37.9 °F 34.4 °F 34.3 °F 87% 29.72 in 10.0 mi SSW 4.6 mph - N/A   Overcast
9:32 AM 38.5 °F 34.1 °F 34.3 °F 85% 29.72 in 10.0 mi South 5.8 mph - N/A   Overcast
9:52 AM 39.4 °F 34.5 °F 35.4 °F 86% 29.73 in 10.0 mi SW 6.9 mph - N/A   Overcast
10:12 AM 40.6 °F 34.3 °F 35.6 °F 82% 29.73 in 10.0 mi SW 10.4 mph - N/A   Overcast
10:32 AM 41.4 °F 36.2 °F 35.6 °F 80% 29.72 in 10.0 mi WSW 8.1 mph - N/A   Overcast
10:51 AM 41.9 °F 37.5 °F 35.8 °F 79% 29.72 in 10.0 mi WSW 6.9 mph - N/A   Light Drizzle
11:12 AM 42.3 °F 37.3 °F 36.0 °F 78% 29.71 in 10.0 mi WSW 8.1 mph - N/A   Overcast
11:32 AM 43.9 °F 37.9 °F 36.9 °F 76% 29.71 in 10.0 mi WSW 11.5 mph - N/A   Overcast
11:51 AM 43.9 °F 38.8 °F 36.9 °F 76% 29.71 in 10.0 mi West 9.2 mph - N/A   Overcast
12:12 PM 44.8 °F 40.4 °F 37.2 °F 75% 29.70 in 10.0 mi WSW 8.1 mph - N/A   Overcast
12:32 PM 44.6 °F 41.4 °F 36.5 °F 73% 29.70 in 10.0 mi West 5.8 mph - N/A   Overcast
12:51 PM 44.1 °F 39.0 °F 37.6 °F 78% 29.70 in 10.0 mi West 9.2 mph - N/A Rain Light Rain
1:12 PM 44.6 °F 40.2 °F 38.1 °F 78% 29.70 in 10.0 mi West 8.1 mph - N/A   Overcast
1:31 PM 45.7 °F 42.7 °F 37.8 °F 74% 29.69 in 10.0 mi West 5.8 mph - N/A   Overcast
1:52 PM 46.4 °F 42.4 °F 37.0 °F 70% 29.69 in 10.0 mi West 8.1 mph - N/A   Overcast
2:12 PM 45.9 °F 42.9 °F 37.0 °F 71% 29.68 in 10.0 mi WSW 5.8 mph - N/A   Overcast
2:31 PM 46.4 °F 44.3 °F 36.5 °F 68% 29.68 in 10.0 mi WNW 4.6 mph - N/A   Overcast
2:52 PM 46.8 °F - 34.5 °F 62% 29.69 in 10.0 mi West 8.1 mph - N/A   Overcast
3:12 PM 47.8 °F - 32.7 °F 56% 29.69 in 10.0 mi WNW 17.3 mph - N/A   Overcast
3:32 PM 44.6 °F 39.7 °F 36.9 °F 74% 29.70 in 10.0 mi WNW 9.2 mph 12.7 mph N/A Rain Light Rain
3:52 PM 46.8 °F - 36.7 °F 68% 29.70 in 10.0 mi NNW 13.8 mph 20.7 mph N/A   Mostly Cloudy
4:11 PM 46.2 °F 41.7 °F 35.8 °F 67% 29.71 in 10.0 mi NNW 9.2 mph - N/A   Overcast
4:32 PM 43.9 °F 35.7 °F 36.0 °F 74% 29.73 in 10.0 mi NW 19.6 mph 25.3 mph N/A Rain Light Rain
4:52 PM 41.0 °F 35.2 °F 36.5 °F 84% 29.73 in 7.0 mi NNW 9.2 mph - N/A Rain Rain
5:12 PM 42.4 °F 36.5 °F 36.7 °F 80% 29.74 in 10.0 mi WNW 10.4 mph - N/A   Overcast
5:32 PM 43.0 °F 37.2 °F 36.9 °F 79% 29.74 in 10.0 mi WNW 10.4 mph - N/A   Mostly Cloudy
5:51 PM 42.8 °F 36.2 °F 35.8 °F 76% 29.75 in 10.0 mi WNW 12.7 mph 17.3 mph N/A   Mostly Cloudy
6:12 PM 41.9 °F 36.9 °F 34.7 °F 76% 29.75 in 10.0 mi West 8.1 mph - N/A   Scattered Clouds
6:32 PM 41.0 °F 35.8 °F 33.8 °F 76% 29.76 in 10.0 mi West 8.1 mph - N/A   Scattered Clouds
6:51 PM 40.1 °F 35.3 °F 33.8 °F 78% 29.76 in 10.0 mi West 6.9 mph - N/A   Mostly Cloudy
7:12 PM 40.1 °F 36.1 °F 34.0 °F 79% 29.77 in 10.0 mi WNW 5.8 mph - N/A   Overcast
7:32 PM 39.2 °F 37.0 °F 34.0 °F 82% 29.78 in 10.0 mi West 3.5 mph - N/A   Overcast
7:51 PM 39.4 °F 37.2 °F 33.4 °F 79% 29.78 in 10.0 mi West 3.5 mph - N/A   Mostly Cloudy
8:12 PM 39.7 °F 36.5 °F 33.1 °F 77% 29.78 in 10.0 mi West 4.6 mph - N/A   Mostly Cloudy
8:32 PM 38.8 °F 33.8 °F 31.5 °F 75% 29.79 in 10.0 mi West 6.9 mph - N/A   Scattered Clouds
8:51 PM 38.7 °F 34.3 °F 30.9 °F 74% 29.79 in 10.0 mi West 5.8 mph - N/A   Mostly Cloudy
9:12 PM 36.7 °F 34.1 °F 30.2 °F 77% 29.79 in 10.0 mi WSW 3.5 mph - N/A   Scattered Clouds
9:32 PM 36.3 °F 32.5 °F 29.3 °F 76% 29.80 in 10.0 mi West 4.6 mph - N/A   Clear
9:51 PM 34.2 °F 31.2 °F 28.9 °F 81% 29.80 in 10.0 mi SSW 3.5 mph - N/A   Clear
10:12 PM 34.0 °F 31.0 °F 28.8 °F 81% 29.80 in 10.0 mi SSW 3.5 mph - N/A   Clear
10:31 PM 34.0 °F 31.0 °F 28.4 °F 80% 29.81 in 10.0 mi SSW 3.5 mph - N/A   Clear
10:52 PM 33.8 °F 30.8 °F 28.2 °F 80% 29.80 in 10.0 mi WSW 3.5 mph - N/A   Clear
11:12 PM 33.3 °F 30.2 °F 28.4 °F 82% 29.81 in 10.0 mi SSW 3.5 mph - N/A   Clear
11:31 PM 32.0 °F 28.7 °F 27.9 °F 85% 29.81 in 10.0 mi SSW 3.5 mph - N/A   Clear
11:52 PM 32.0 °F - 27.5 °F 83% 29.80 in 10.0 mi Calm Calm - N/A   Clear